User: anonymous   Login
Location: Fensholt
(55.9856°N, 10.0808°E)
Time: 03:24:15
(UTC+00:00)
Language:

STARLINK-1324 - Orbit

View from above orbital plane
View from above orbital plane
View from above satellite
View from above satellite

Ground track
Ground track

The orbit data is extracted from the following two-line orbital elements,

1 45574U 20025AV  20221.91667824 -.00999325 +00000-0 -25466-1 0  9997
2 45574 052.9997 230.7697 0001437 056.2367 050.0714 15.41842027001772
Epoch (UTC): 08 August 2020 22:00:01
Eccentricity: 0.0001437
inclination: 52.9997°
perigee height: 440 km
apogee height: 441 km
right ascension of ascending node: 230.7697°
argument of perigee: 56.2367°
revolutions per day: 15.41842027
mean anomaly at epoch: 50.0714°
orbit number at epoch: 177

The dashed part of the orbit path shows where the satellite is in the earth's shadow,  

DLR